This is the latest recevied weather packets stored in our database for station/object PP5CFL-2. If no packets are shown the sender has not sent any weather packets the latest 10 day(s).
| Time | Temp. | Humidity | Pressure | Rain* | Wind** | Luminosity | Snow |
|---|---|---|---|---|---|---|---|
| 1788641220 | 18.33° C | 72% | 1018.3 hPa | - | - | - | - |
| 1788640920 | 18.33° C | 65% | 1018.1 hPa | - | - | - | - |
| 1788640620 | 18.33° C | 65% | 1017.9 hPa | - | - | - | - |
| 1788640320 | 18.33° C | 64% | 1017.9 hPa | - | - | - | - |
| 1788640020 | 18.89° C | 67% | 1017.7 hPa | - | - | - | - |
| 1788639720 | 18.89° C | 69% | 1017.8 hPa | - | - | - | - |
| 1788639420 | 18.89° C | 67% | 1018 hPa | - | - | - | - |
| 1788639121 | 18.89° C | 65% | 1018 hPa | - | - | - | - |
| 1788638820 | 18.33° C | 64% | 1018 hPa | - | - | - | - |
| 1788638520 | 18.89° C | 62% | 1017.7 hPa | - | - | - | - |
| 1788638220 | 18.89° C | 64% | 1017.6 hPa | - | - | - | - |
| 1788637920 | 18.89° C | 64% | 1017.5 hPa | - | - | - | - |
| 1788637620 | 18.89° C | 66% | 1017.4 hPa | - | - | - | - |
| 1788637320 | 18.89° C | 65% | 1017.3 hPa | - | - | - | - |
| 1788637020 | 18.33° C | 67% | 1017.2 hPa | - | - | - | - |
| 1788636720 | 18.33° C | 69% | 1017.3 hPa | - | - | - | - |
| 1788636420 | 18.33° C | 69% | 1017.2 hPa | - | - | - | - |
| 1788636120 | 18.33° C | 69% | 1017.2 hPa | - | - | - | - |
| 1788635820 | 18.33° C | 68% | 1017.3 hPa | - | - | - | - |
| 1788635520 | 18.33° C | 69% | 1017.4 hPa | - | - | - | - |
| 1788635220 | 18.89° C | 70% | 1016.9 hPa | - | - | - | - |
| 1788634920 | 18.89° C | 68% | 1016.7 hPa | - | - | - | - |
| 1788634620 | 18.89° C | 72% | 1016.7 hPa | - | - | - | - |
| 1788634320 | 18.89° C | 74% | 1016.7 hPa | - | - | - | - |
| 1788634020 | 18.89° C | 80% | 1016.8 hPa | - | - | - | - |
* Rain since midnight (hover to see other rain measurements)
** Current wind speed in m/s (hover to see current wind gust speed)